ELY801 LLBG-EBLG

Flight info

Callsign ELY801
Flight time 4h 22m
Altitude 34000
Route SUVAS DCT TEZAK L324 SAFTA DCT MAROS/N0446F360 DCT LUTIG DCT BENEM UN127 RIKSO DCT DISOR DCT LONTA UL608 DOLEV DCT DEVUL DCT VEKEN DCT UMVEG DCT KPT DCT KUNOD L608 TEDGO DCT SUNEG L608 MISGI Z104 IDOVI/N0397F280 Z104 ODVUX/N0373F240 Z104 GESLO N852 LNO
Aircraft B738/M-SDE2E3FGHIRWXY/LB1

Departure

Time 2026-04-25 07:55
Airport Ben Gurion International Airport (LLBG)

Arrival

Time 2026-04-25 12:17
Airport Liège Airport (EBLG)
Time Latitude Longitude Altitude Speed Heading
2026-04-25 07:20 31.99554 34.90021 115 ft 0 kts 94°
2026-04-25 07:38 31.99554 34.89999 119 ft 4 kts 85°
2026-04-25 07:38 31.99549 34.89969 119 ft 4 kts 65°
2026-04-25 07:38 31.99534 34.89944 114 ft 4 kts 30°
2026-04-25 07:38 31.99516 34.89938 118 ft 0 kts 346°
2026-04-25 07:44 31.99517 34.89938 118 ft 0 kts 346°
2026-04-25 07:45 31.99539 34.89931 116 ft 7 kts 345°
2026-04-25 07:45 31.99615 34.89909 117 ft 15 kts 346°
2026-04-25 07:45 31.99718 34.89860 117 ft 17 kts 333°
2026-04-25 07:45 31.99821 34.89800 119 ft 16 kts 333°
2026-04-25 07:46 31.99919 34.89740 115 ft 16 kts 333°
2026-04-25 07:46 32.00014 34.89683 118 ft 15 kts 332°
2026-04-25 07:46 32.00105 34.89629 118 ft 14 kts 334°
2026-04-25 07:46 32.00192 34.89574 118 ft 14 kts 326°
2026-04-25 07:47 32.00250 34.89485 118 ft 14 kts 301°
2026-04-25 07:47 32.00299 34.89389 116 ft 13 kts 301°
2026-04-25 07:47 32.00332 34.89325 115 ft 6 kts 301°
2026-04-25 07:47 32.00345 34.89300 115 ft 0 kts 300°
2026-04-25 07:48 32.00347 34.89295 116 ft 4 kts 300°
2026-04-25 07:48 32.00369 34.89250 116 ft 9 kts 302°
2026-04-25 07:48 32.00412 34.89167 117 ft 16 kts 302°
2026-04-25 07:49 32.00478 34.89041 118 ft 17 kts 301°
2026-04-25 07:49 32.00558 34.88985 118 ft 14 kts 18°
2026-04-25 07:49 32.00642 34.89036 118 ft 13 kts 28°
2026-04-25 07:49 32.00721 34.89089 117 ft 13 kts 28°
2026-04-25 07:50 32.00800 34.89138 119 ft 13 kts 28°
2026-04-25 07:50 32.00875 34.89188 117 ft 12 kts 30°
2026-04-25 07:50 32.00952 34.89238 117 ft 13 kts 29°
2026-04-25 07:50 32.01036 34.89291 119 ft 14 kts 30°
2026-04-25 07:51 32.01125 34.89349 115 ft 15 kts 29°
2026-04-25 07:51 32.01228 34.89416 119 ft 18 kts 30°
2026-04-25 07:51 32.01349 34.89493 118 ft 21 kts 29°
2026-04-25 07:51 32.01487 34.89581 119 ft 24 kts 28°
2026-04-25 07:52 32.01638 34.89677 116 ft 26 kts 28°
2026-04-25 07:52 32.01758 34.89755 115 ft 15 kts 28°
2026-04-25 07:52 32.01837 34.89739 117 ft 11 kts 299°
2026-04-25 07:52 32.01836 34.89675 115 ft 0 kts 258°
2026-04-25 07:53 32.01834 34.89662 114 ft 1 kts 259°
2026-04-25 07:53 32.01832 34.89651 113 ft 2 kts 259°
2026-04-25 07:54 32.01822 34.89589 116 ft 28 kts 260°
2026-04-25 07:54 32.01747 34.89083 116 ft 97 kts 259°
2026-04-25 07:54 32.01593 34.88056 118 ft 155 kts 261°
2026-04-25 07:54 32.01379 34.86649 380 ft 185 kts 259°
2026-04-25 07:55 32.01128 34.85194 1323 ft 176 kts 259°
2026-04-25 07:55 32.00865 34.83780 2114 ft 178 kts 255°
2026-04-25 07:55 32.00572 34.82361 2921 ft 178 kts 253°
2026-04-25 07:55 32.00268 34.80923 3568 ft 189 kts 253°
2026-04-25 07:56 31.99924 34.79305 3837 ft 217 kts 253°
2026-04-25 07:56 31.99540 34.77491 4050 ft 239 kts 254°
2026-04-25 07:56 31.99181 34.75525 4456 ft 251 kts 265°
2026-04-25 07:56 31.99517 34.73520 5004 ft 257 kts 289°
2026-04-25 07:57 32.00162 34.71545 5631 ft 259 kts 289°
2026-04-25 07:57 32.00798 34.69550 6213 ft 263 kts 288°
2026-04-25 07:57 32.01453 34.67463 6546 ft 281 kts 288°
2026-04-25 07:57 32.02136 34.65274 7170 ft 287 kts 288°
2026-04-25 07:58 32.02744 34.63030 7705 ft 287 kts 276°
2026-04-25 07:58 32.02879 34.60702 7996 ft 285 kts 269°
2026-04-25 07:58 32.02958 34.58366 7984 ft 285 kts 270°
2026-04-25 07:58 32.03061 34.56072 7995 ft 284 kts 271°
2026-04-25 07:59 32.03178 34.53746 8004 ft 284 kts 271°
2026-04-25 07:59 32.03300 34.51415 8029 ft 286 kts 271°
2026-04-25 07:59 32.03423 34.49057 8516 ft 291 kts 271°
2026-04-25 07:59 32.03548 34.46692 9437 ft 288 kts 271°
2026-04-25 08:00 32.03673 34.44333 10224 ft 290 kts 271°
2026-04-25 08:00 32.03807 34.41894 10546 ft 310 kts 271°
2026-04-25 08:00 32.03956 34.39268 10718 ft 332 kts 271°
2026-04-25 08:00 32.04116 34.36474 11005 ft 349 kts 271°
2026-04-25 08:01 32.04282 34.33629 11581 ft 355 kts 271°
2026-04-25 08:01 32.04451 34.30721 12303 ft 356 kts 271°
2026-04-25 08:01 32.04617 34.27801 13031 ft 358 kts 271°
2026-04-25 08:01 32.04786 34.24857 13723 ft 362 kts 272°
2026-04-25 08:02 32.05374 34.21952 14301 ft 372 kts 292°
2026-04-25 08:02 32.06654 34.19285 14957 ft 376 kts 298°
2026-04-25 08:02 32.08026 34.16647 15566 ft 379 kts 298°
2026-04-25 08:02 32.09413 34.13991 16191 ft 382 kts 298°
2026-04-25 08:03 32.10800 34.11311 16815 ft 384 kts 297°
2026-04-25 08:03 32.12166 34.08644 17405 ft 387 kts 297°
2026-04-25 08:03 32.13554 34.05913 18017 ft 389 kts 297°
2026-04-25 08:03 32.14950 34.03158 18562 ft 392 kts 297°
2026-04-25 08:04 32.16352 34.00386 19073 ft 395 kts 297°
2026-04-25 08:04 32.17811 33.97622 19571 ft 399 kts 300°
2026-04-25 08:04 32.19398 33.94912 20075 ft 403 kts 301°
2026-04-25 08:04 32.21047 33.92211 20534 ft 408 kts 302°
2026-04-25 08:05 32.22723 33.89495 21010 ft 411 kts 302°
2026-04-25 08:05 32.24405 33.86763 21515 ft 412 kts 302°
2026-04-25 08:05 32.26068 33.84046 21994 ft 415 kts 301°
2026-04-25 08:05 32.27754 33.81272 22477 ft 417 kts 301°
2026-04-25 08:06 32.29445 33.78475 22946 ft 419 kts 301°
2026-04-25 08:06 32.31141 33.75659 23398 ft 422 kts 301°
2026-04-25 08:06 32.32845 33.72821 23787 ft 424 kts 301°
2026-04-25 08:06 32.34556 33.69969 24177 ft 426 kts 301°
2026-04-25 08:07 32.36272 33.67105 24580 ft 428 kts 301°
2026-04-25 08:07 32.37997 33.64224 24922 ft 431 kts 301°
2026-04-25 08:07 32.39709 33.61362 25284 ft 432 kts 301°
2026-04-25 08:07 32.41449 33.58452 25665 ft 434 kts 301°
2026-04-25 08:08 32.43193 33.55533 26036 ft 435 kts 301°
2026-04-25 08:08 32.44942 33.52604 26386 ft 437 kts 301°
2026-04-25 08:08 32.46695 33.49665 26730 ft 438 kts 301°
2026-04-25 08:08 32.48459 33.46706 27070 ft 440 kts 300°
2026-04-25 08:09 32.50226 33.43738 27401 ft 442 kts 300°
2026-04-25 08:09 32.52002 33.40755 27739 ft 443 kts 300°
2026-04-25 08:09 32.53780 33.37764 28056 ft 445 kts 300°
2026-04-25 08:09 32.55563 33.34763 28368 ft 446 kts 300°
2026-04-25 08:10 32.57350 33.31754 28720 ft 447 kts 300°
2026-04-25 08:10 32.59111 33.28787 29171 ft 445 kts 300°
2026-04-25 08:10 32.60887 33.25796 29683 ft 441 kts 300°
2026-04-25 08:10 32.62646 33.22827 30141 ft 439 kts 300°
2026-04-25 08:11 32.64398 33.19869 30493 ft 438 kts 300°
2026-04-25 08:11 32.66145 33.16915 30834 ft 437 kts 300°
2026-04-25 08:11 32.67886 33.13968 31207 ft 435 kts 299°
2026-04-25 08:11 32.69618 33.11035 31560 ft 433 kts 299°
2026-04-25 08:12 32.71343 33.08111 31918 ft 432 kts 299°
2026-04-25 08:12 32.73063 33.05193 32275 ft 430 kts 299°
2026-04-25 08:12 32.74756 33.02318 32578 ft 430 kts 299°
2026-04-25 08:12 32.76466 32.99412 32888 ft 429 kts 298°
2026-04-25 08:13 32.78172 32.96511 33251 ft 427 kts 298°
2026-04-25 08:13 32.79867 32.93629 33609 ft 425 kts 298°
2026-04-25 08:13 32.81553 32.90758 33934 ft 423 kts 298°
2026-04-25 08:14 32.84947 32.84965 33959 ft 429 kts 298°
2026-04-25 08:14 32.88322 32.79204 33935 ft 424 kts 298°
2026-04-25 08:15 32.91677 32.73472 33953 ft 421 kts 298°
2026-04-25 08:15 32.95017 32.67749 33957 ft 421 kts 298°
2026-04-25 08:16 32.98355 32.62020 33952 ft 421 kts 298°
2026-04-25 08:16 33.01693 32.56283 33961 ft 422 kts 297°
2026-04-25 08:17 33.05015 32.50568 33961 ft 423 kts 297°
2026-04-25 08:17 33.08361 32.44800 33960 ft 424 kts 297°
2026-04-25 08:18 33.11715 32.39011 33960 ft 425 kts 297°
2026-04-25 08:18 33.15076 32.33201 33972 ft 426 kts 297°
2026-04-25 08:19 33.18418 32.27413 33973 ft 427 kts 298°
2026-04-25 08:19 33.21796 32.21556 33965 ft 429 kts 298°
2026-04-25 08:20 33.25177 32.15682 33962 ft 430 kts 298°
2026-04-25 08:20 33.28562 32.09795 33958 ft 430 kts 298°
2026-04-25 08:21 33.31929 32.03927 33959 ft 431 kts 299°
2026-04-25 08:21 33.35322 31.98005 33960 ft 432 kts 299°
2026-04-25 08:22 33.38713 31.92076 33958 ft 432 kts 299°
2026-04-25 08:22 33.42101 31.86145 33960 ft 432 kts 299°
2026-04-25 08:23 33.45780 31.80442 33953 ft 441 kts 313°
2026-04-25 08:23 33.48236 31.78280 33970 ft 448 kts 325°
2026-04-25 08:23 33.51090 31.76724 33963 ft 456 kts 338°
2026-04-25 08:24 33.57192 31.74591 33973 ft 457 kts 340°
2026-04-25 08:24 33.63300 31.72493 33949 ft 456 kts 339°
2026-04-25 08:25 33.69287 31.70344 33960 ft 455 kts 339°
2026-04-25 08:25 33.75390 31.68129 33961 ft 454 kts 339°
2026-04-25 08:26 33.81133 31.65182 33983 ft 444 kts 323°
2026-04-25 08:26 33.86011 31.60729 33972 ft 440 kts 317°
2026-04-25 08:27 33.90782 31.56122 33961 ft 439 kts 317°
2026-04-25 08:27 33.95567 31.51542 33992 ft 440 kts 317°
2026-04-25 08:28 34.00339 31.47009 33973 ft 440 kts 317°
2026-04-25 08:28 34.05156 31.42442 33968 ft 440 kts 317°
2026-04-25 08:29 34.09968 31.37874 33972 ft 440 kts 317°
2026-04-25 08:29 34.14783 31.33295 33969 ft 441 kts 317°
2026-04-25 08:30 34.19598 31.28708 33966 ft 441 kts 317°
2026-04-25 08:30 34.24378 31.24148 33987 ft 441 kts 317°
2026-04-25 08:31 34.29196 31.19544 33976 ft 442 kts 317°
2026-04-25 08:31 34.34017 31.14931 33966 ft 442 kts 317°
2026-04-25 08:32 34.38834 31.10315 33968 ft 442 kts 317°
2026-04-25 08:32 34.43618 31.05723 33972 ft 442 kts 317°
2026-04-25 08:33 34.48432 31.01094 33966 ft 442 kts 317°
2026-04-25 08:33 34.53247 30.96458 33970 ft 442 kts 317°
2026-04-25 08:34 34.57953 30.91920 33969 ft 442 kts 317°
2026-04-25 08:34 34.62733 30.87308 33969 ft 442 kts 317°
2026-04-25 08:35 34.67563 30.82690 33965 ft 442 kts 317°
2026-04-25 08:35 34.72402 30.78072 33976 ft 442 kts 317°
2026-04-25 08:36 34.77233 30.73448 33964 ft 442 kts 318°
2026-04-25 08:36 34.82027 30.68850 33970 ft 442 kts 317°
2026-04-25 08:37 34.86849 30.64215 33967 ft 442 kts 317°
2026-04-25 08:37 34.91670 30.59575 33967 ft 442 kts 317°
2026-04-25 08:38 34.96490 30.54928 33969 ft 442 kts 317°
2026-04-25 08:38 35.01279 30.50303 33969 ft 442 kts 317°
2026-04-25 08:39 35.06097 30.45645 33969 ft 443 kts 317°
2026-04-25 08:39 35.10925 30.40969 33971 ft 443 kts 317°
2026-04-25 08:40 35.15754 30.36284 33978 ft 444 kts 317°
2026-04-25 08:40 35.20595 30.31581 33974 ft 445 kts 317°
2026-04-25 08:41 35.25411 30.26894 33973 ft 446 kts 317°
2026-04-25 08:41 35.30269 30.22160 33971 ft 447 kts 317°
2026-04-25 08:42 35.35133 30.17411 33967 ft 448 kts 317°
2026-04-25 08:42 35.40008 30.12645 33982 ft 448 kts 317°
2026-04-25 08:43 35.44850 30.07902 33971 ft 449 kts 317°
2026-04-25 08:43 35.49733 30.03113 33975 ft 450 kts 317°
2026-04-25 08:44 35.54612 29.98292 33980 ft 450 kts 316°
2026-04-25 08:44 35.59400 29.93348 33978 ft 450 kts 316°
2026-04-25 08:45 35.64135 29.88402 33989 ft 450 kts 316°
2026-04-25 08:45 35.68912 29.83426 33982 ft 450 kts 316°
2026-04-25 08:46 35.73693 29.78454 33983 ft 450 kts 316°
2026-04-25 08:46 35.78478 29.73475 33981 ft 451 kts 316°
2026-04-25 08:47 35.83266 29.68484 33981 ft 451 kts 316°
2026-04-25 08:47 35.88050 29.63488 33984 ft 451 kts 316°
2026-04-25 08:48 35.92802 29.58517 33984 ft 451 kts 316°
2026-04-25 08:48 35.97583 29.53507 33994 ft 451 kts 316°
2026-04-25 08:49 36.02374 29.48479 33984 ft 452 kts 316°
2026-04-25 08:49 36.07159 29.43448 33985 ft 452 kts 316°
2026-04-25 08:50 36.11949 29.38403 33981 ft 453 kts 316°
2026-04-25 08:50 36.16744 29.33346 33976 ft 453 kts 316°
2026-04-25 08:51 36.21554 29.28294 33980 ft 454 kts 316°
2026-04-25 08:51 36.26355 29.23297 33985 ft 454 kts 317°
2026-04-25 08:52 36.31186 29.18252 33971 ft 454 kts 317°
2026-04-25 08:52 36.36002 29.13193 33964 ft 454 kts 317°
2026-04-25 08:53 36.40809 29.08119 33972 ft 454 kts 317°
2026-04-25 08:53 36.45614 29.03039 33965 ft 453 kts 317°
2026-04-25 08:54 36.50378 28.97996 33961 ft 453 kts 317°
2026-04-25 08:54 36.55169 28.92916 33971 ft 452 kts 317°
2026-04-25 08:55 36.59948 28.87840 33987 ft 452 kts 317°
2026-04-25 08:55 36.64721 28.82762 33992 ft 451 kts 317°
2026-04-25 08:56 36.69487 28.77685 34001 ft 451 kts 317°
2026-04-25 08:56 36.74229 28.72661 33991 ft 450 kts 317°
2026-04-25 08:57 36.79007 28.67607 33995 ft 450 kts 317°
2026-04-25 08:57 36.83775 28.62548 33988 ft 450 kts 317°
2026-04-25 08:58 36.87735 28.58338 33964 ft 449 kts 317°
2026-04-25 08:58 36.92480 28.53285 33994 ft 448 kts 317°
2026-04-25 08:59 36.97994 28.47402 33987 ft 448 kts 317°
2026-04-25 08:59 37.02735 28.42333 34009 ft 449 kts 317°
2026-04-25 09:00 37.06684 28.38105 34010 ft 451 kts 317°
2026-04-25 09:00 37.11437 28.32958 34005 ft 452 kts 316°
2026-04-25 09:01 37.16182 28.27760 34000 ft 454 kts 317°
2026-04-25 09:01 37.20982 28.22603 33981 ft 455 kts 317°
2026-04-25 09:02 37.25793 28.17453 33981 ft 455 kts 317°
2026-04-25 09:02 37.30598 28.12283 33971 ft 454 kts 317°
2026-04-25 09:03 37.35336 28.07125 33978 ft 453 kts 317°
2026-04-25 09:03 37.40083 28.01923 33972 ft 452 kts 316°
2026-04-25 09:04 37.44827 27.96719 33974 ft 452 kts 317°
2026-04-25 09:04 37.49560 27.91522 33968 ft 451 kts 317°
2026-04-25 09:05 37.54284 27.86327 33966 ft 450 kts 317°
2026-04-25 09:05 37.58963 27.81173 33962 ft 449 kts 316°
2026-04-25 09:06 37.63668 27.75981 33972 ft 449 kts 316°
2026-04-25 09:06 37.68364 27.70790 33965 ft 449 kts 316°
2026-04-25 09:07 37.73059 27.65590 33961 ft 449 kts 317°
2026-04-25 09:07 37.77747 27.60390 33967 ft 448 kts 317°
2026-04-25 09:08 37.82396 27.55223 33966 ft 448 kts 317°
2026-04-25 09:08 37.87081 27.50007 33962 ft 448 kts 317°
2026-04-25 09:09 37.91767 27.44815 33968 ft 448 kts 317°
2026-04-25 09:09 37.96483 27.39649 33962 ft 448 kts 317°
2026-04-25 09:10 38.01202 27.34472 33968 ft 448 kts 317°
2026-04-25 09:10 38.05880 27.29321 33973 ft 448 kts 317°
2026-04-25 09:11 38.12937 27.21528 33970 ft 448 kts 317°
2026-04-25 09:11 38.17627 27.16336 33993 ft 447 kts 318°
2026-04-25 09:12 38.22305 27.11149 33994 ft 446 kts 318°
2026-04-25 09:12 38.26940 27.05999 33997 ft 445 kts 318°
2026-04-25 09:13 38.31594 27.00822 33989 ft 444 kts 319°
2026-04-25 09:13 38.36262 26.95658 33987 ft 444 kts 319°
2026-04-25 09:14 38.40929 26.90516 33985 ft 443 kts 319°
2026-04-25 09:14 38.45586 26.85369 33988 ft 443 kts 320°
2026-04-25 09:15 38.50236 26.80218 33992 ft 443 kts 320°
2026-04-25 09:15 38.54850 26.75094 33988 ft 443 kts 320°
2026-04-25 09:16 38.59497 26.69925 33987 ft 443 kts 320°
2026-04-25 09:16 38.64150 26.64740 33990 ft 444 kts 321°
2026-04-25 09:17 38.71148 26.56926 34007 ft 446 kts 321°
2026-04-25 09:18 38.75837 26.51676 34009 ft 448 kts 322°
2026-04-25 09:18 38.80507 26.46440 34013 ft 450 kts 322°
2026-04-25 09:19 38.85108 26.40963 34015 ft 454 kts 316°
2026-04-25 09:19 38.89324 26.34906 34009 ft 456 kts 314°
2026-04-25 09:20 38.93475 26.28762 34013 ft 456 kts 314°
2026-04-25 09:20 38.97656 26.22640 34018 ft 455 kts 315°
2026-04-25 09:21 39.01827 26.16585 34020 ft 455 kts 315°
2026-04-25 09:21 39.06020 26.10509 34022 ft 454 kts 315°
2026-04-25 09:22 39.10203 26.04438 34028 ft 453 kts 315°
2026-04-25 09:22 39.14375 25.98370 34028 ft 452 kts 315°
2026-04-25 09:23 39.18533 25.92307 34032 ft 451 kts 315°
2026-04-25 09:23 39.22685 25.86243 34030 ft 450 kts 315°
2026-04-25 09:24 39.26790 25.80234 34023 ft 448 kts 315°
2026-04-25 09:24 39.30899 25.74209 34031 ft 446 kts 315°
2026-04-25 09:25 39.34993 25.68193 34038 ft 445 kts 315°
2026-04-25 09:25 39.39072 25.62190 34045 ft 444 kts 315°
2026-04-25 09:26 39.43140 25.56190 34041 ft 444 kts 315°
2026-04-25 09:26 39.47203 25.50186 34049 ft 443 kts 315°
2026-04-25 09:27 39.51264 25.44175 34043 ft 444 kts 315°
2026-04-25 09:27 39.55295 25.38195 34052 ft 443 kts 314°
2026-04-25 09:28 39.59351 25.32167 34040 ft 444 kts 314°
2026-04-25 09:28 39.63402 25.26134 34053 ft 443 kts 314°
2026-04-25 09:29 39.67442 25.20106 34050 ft 443 kts 314°
2026-04-25 09:29 39.71481 25.14066 34054 ft 442 kts 314°
2026-04-25 09:30 39.75482 25.08075 34054 ft 442 kts 314°
2026-04-25 09:30 39.79503 25.02039 34054 ft 442 kts 314°
2026-04-25 09:31 39.83520 24.95998 34047 ft 441 kts 314°
2026-04-25 09:31 39.87522 24.89970 34058 ft 440 kts 314°
2026-04-25 09:32 39.91514 24.83944 34066 ft 440 kts 314°
2026-04-25 09:32 39.95551 24.77841 34306 ft 447 kts 314°
2026-04-25 09:32 39.97576 24.74773 34565 ft 446 kts 314°
2026-04-25 09:33 39.99570 24.71750 34823 ft 445 kts 314°
2026-04-25 09:33 40.01585 24.68690 35035 ft 446 kts 313°
2026-04-25 09:33 40.03606 24.65619 35236 ft 446 kts 313°
2026-04-25 09:33 40.05630 24.62540 35460 ft 446 kts 313°
2026-04-25 09:34 40.07649 24.59467 35680 ft 446 kts 313°
2026-04-25 09:34 40.09671 24.56386 35880 ft 447 kts 313°
2026-04-25 09:34 40.11690 24.53306 36062 ft 447 kts 313°
2026-04-25 09:35 40.15755 24.47098 36075 ft 450 kts 313°
2026-04-25 09:35 40.19802 24.40901 36066 ft 446 kts 313°
2026-04-25 09:36 40.23790 24.34783 36071 ft 443 kts 313°
2026-04-25 09:36 40.27776 24.28656 36074 ft 441 kts 313°
2026-04-25 09:37 40.31746 24.22544 36084 ft 440 kts 313°
2026-04-25 09:37 40.35715 24.16421 36081 ft 441 kts 313°
2026-04-25 09:38 40.39689 24.10278 36075 ft 442 kts 313°
2026-04-25 09:38 40.43668 24.04114 36079 ft 444 kts 313°
2026-04-25 09:39 40.47632 23.97962 36083 ft 445 kts 313°
2026-04-25 09:39 40.51629 23.91745 36076 ft 446 kts 313°
2026-04-25 09:40 40.57634 23.82381 36072 ft 447 kts 313°
2026-04-25 09:40 40.61639 23.76120 36071 ft 447 kts 313°
2026-04-25 09:41 40.65640 23.69852 36076 ft 447 kts 313°
2026-04-25 09:41 40.69606 23.63627 36067 ft 446 kts 313°
2026-04-25 09:42 40.73587 23.57364 36069 ft 444 kts 313°
2026-04-25 09:42 40.77549 23.51119 36064 ft 443 kts 313°
2026-04-25 09:43 40.81492 23.44892 36063 ft 441 kts 313°
2026-04-25 09:43 40.85392 23.38720 36069 ft 440 kts 314°
2026-04-25 09:44 40.89302 23.32519 36066 ft 439 kts 314°
2026-04-25 09:44 40.93202 23.26322 36069 ft 438 kts 314°
2026-04-25 09:45 40.97092 23.20129 36069 ft 438 kts 314°
2026-04-25 09:45 41.00984 23.13920 36074 ft 438 kts 314°
2026-04-25 09:46 41.04870 23.07707 36071 ft 439 kts 314°
2026-04-25 09:46 41.08733 23.01519 36077 ft 439 kts 313°
2026-04-25 09:47 41.12622 22.95276 36076 ft 439 kts 313°
2026-04-25 09:47 41.16503 22.89032 36078 ft 439 kts 313°
2026-04-25 09:48 41.20383 22.82777 36076 ft 439 kts 313°
2026-04-25 09:48 41.24231 22.76563 36070 ft 438 kts 313°
2026-04-25 09:49 41.28213 22.70459 36085 ft 436 kts 316°
2026-04-25 09:49 41.32331 22.64537 36086 ft 436 kts 317°
2026-04-25 09:50 41.36444 22.58599 36088 ft 436 kts 316°
2026-04-25 09:50 41.40535 22.52622 36095 ft 436 kts 316°
2026-04-25 09:51 41.44584 22.46668 36096 ft 437 kts 316°
2026-04-25 09:51 41.48654 22.40664 36099 ft 436 kts 316°
2026-04-25 09:52 41.52721 22.34654 36103 ft 436 kts 316°
2026-04-25 09:52 41.56787 22.28634 36108 ft 436 kts 316°
2026-04-25 09:53 41.60819 22.22652 36105 ft 436 kts 316°
2026-04-25 09:53 41.64881 22.16615 36117 ft 436 kts 316°
2026-04-25 09:54 41.68937 22.10573 36095 ft 436 kts 316°
2026-04-25 09:54 41.72980 22.04539 36112 ft 435 kts 316°
2026-04-25 09:55 41.76988 21.98543 36097 ft 434 kts 316°
2026-04-25 09:55 41.81011 21.92515 36107 ft 433 kts 316°
2026-04-25 09:56 41.85019 21.86495 36107 ft 432 kts 315°
2026-04-25 09:56 41.89019 21.80477 36106 ft 432 kts 315°
2026-04-25 09:57 41.92987 21.74495 36093 ft 432 kts 315°
2026-04-25 09:57 41.96978 21.68465 36104 ft 432 kts 315°
2026-04-25 09:58 42.00974 21.62415 36104 ft 433 kts 315°
2026-04-25 09:58 42.04973 21.56347 36106 ft 434 kts 315°
2026-04-25 09:59 42.08944 21.50309 36112 ft 434 kts 315°
2026-04-25 09:59 42.12941 21.44220 36120 ft 434 kts 315°
2026-04-25 10:00 42.16933 21.38112 36120 ft 435 kts 314°
2026-04-25 10:00 42.20874 21.31896 36119 ft 436 kts 314°
2026-04-25 10:01 42.24795 21.25645 36122 ft 437 kts 314°
2026-04-25 10:01 42.28695 21.19430 36120 ft 437 kts 314°
2026-04-25 10:02 42.32621 21.13174 36110 ft 437 kts 314°
2026-04-25 10:02 42.36545 21.06914 36125 ft 436 kts 314°
2026-04-25 10:03 42.40462 21.00651 36125 ft 436 kts 313°
2026-04-25 10:03 42.44374 20.94382 36127 ft 436 kts 313°
2026-04-25 10:04 42.48250 20.88158 36127 ft 435 kts 313°
2026-04-25 10:04 42.52141 20.81897 36120 ft 434 kts 313°
2026-04-25 10:05 42.56016 20.75647 36117 ft 432 kts 313°
2026-04-25 10:05 42.59876 20.69409 36116 ft 431 kts 313°
2026-04-25 10:06 42.63723 20.63179 36113 ft 430 kts 313°
2026-04-25 10:06 42.67540 20.56984 36106 ft 430 kts 313°
2026-04-25 10:07 42.71371 20.50754 36111 ft 430 kts 313°
2026-04-25 10:07 42.75205 20.44506 36099 ft 430 kts 313°
2026-04-25 10:08 42.79031 20.38255 36102 ft 430 kts 313°
2026-04-25 10:08 42.82829 20.32040 36110 ft 430 kts 313°
2026-04-25 10:09 42.86696 20.25825 36098 ft 430 kts 314°
2026-04-25 10:09 42.90609 20.19667 36106 ft 430 kts 314°
2026-04-25 10:10 42.94524 20.13493 36094 ft 431 kts 314°
2026-04-25 10:10 42.98434 20.07292 36100 ft 431 kts 313°
2026-04-25 10:11 43.02311 20.01121 36104 ft 431 kts 313°
2026-04-25 10:11 43.06211 19.94897 36106 ft 431 kts 313°
2026-04-25 10:12 43.10106 19.88669 36092 ft 431 kts 313°
2026-04-25 10:13 43.15951 19.79295 36092 ft 432 kts 313°
2026-04-25 10:13 43.19818 19.73078 36103 ft 432 kts 313°
2026-04-25 10:14 43.23704 19.66817 36110 ft 431 kts 313°
2026-04-25 10:14 43.27588 19.60546 36095 ft 431 kts 313°
2026-04-25 10:15 43.31462 19.54277 36107 ft 430 kts 313°
2026-04-25 10:15 43.35304 19.48047 36092 ft 430 kts 313°
2026-04-25 10:16 43.39161 19.41779 36100 ft 429 kts 312°
2026-04-25 10:16 43.43004 19.35519 36106 ft 428 kts 312°
2026-04-25 10:17 43.46836 19.29266 36104 ft 428 kts 312°
2026-04-25 10:17 43.50669 19.22997 36094 ft 427 kts 312°
2026-04-25 10:18 43.54465 19.16774 36104 ft 427 kts 312°
2026-04-25 10:18 43.58280 19.10508 36118 ft 426 kts 312°
2026-04-25 10:19 43.62089 19.04237 36108 ft 426 kts 312°
2026-04-25 10:19 43.65895 18.97957 36114 ft 426 kts 311°
2026-04-25 10:20 43.69673 18.91711 36083 ft 426 kts 311°
2026-04-25 10:20 43.73470 18.85418 36106 ft 426 kts 311°
2026-04-25 10:21 43.77265 18.79117 36098 ft 426 kts 311°
2026-04-25 10:21 43.81057 18.72805 36108 ft 426 kts 311°
2026-04-25 10:22 43.84846 18.66485 36101 ft 426 kts 311°
2026-04-25 10:22 43.88603 18.60204 36096 ft 426 kts 311°
2026-04-25 10:23 43.92387 18.53867 36095 ft 426 kts 311°
2026-04-25 10:23 43.96160 18.47531 36115 ft 426 kts 311°
2026-04-25 10:24 43.99933 18.41183 36099 ft 426 kts 311°
2026-04-25 10:24 44.03674 18.34874 36106 ft 426 kts 311°
2026-04-25 10:25 44.07437 18.28515 36113 ft 425 kts 311°
2026-04-25 10:25 44.11190 18.22158 36097 ft 425 kts 311°
2026-04-25 10:26 44.14932 18.15807 36102 ft 424 kts 311°
2026-04-25 10:26 44.18636 18.09505 36086 ft 423 kts 310°
2026-04-25 10:27 44.22354 18.03166 36097 ft 422 kts 310°
2026-04-25 10:27 44.26064 17.96825 36089 ft 422 kts 310°
2026-04-25 10:28 44.29767 17.90485 36103 ft 421 kts 310°
2026-04-25 10:28 44.33439 17.84182 36103 ft 421 kts 310°
2026-04-25 10:29 44.37135 17.77825 36078 ft 422 kts 310°
2026-04-25 10:29 44.40835 17.71447 36087 ft 423 kts 310°
2026-04-25 10:30 44.44536 17.65052 36092 ft 423 kts 310°
2026-04-25 10:30 44.48237 17.58643 36087 ft 423 kts 310°
2026-04-25 10:31 44.51908 17.52273 36077 ft 423 kts 309°
2026-04-25 10:31 44.55600 17.45850 36088 ft 423 kts 309°
2026-04-25 10:32 44.59297 17.39406 36082 ft 424 kts 309°
2026-04-25 10:32 44.62987 17.32958 36077 ft 424 kts 309°
2026-04-25 10:33 44.66677 17.26497 36079 ft 424 kts 309°
2026-04-25 10:33 44.70335 17.20076 36076 ft 423 kts 309°
2026-04-25 10:34 44.74008 17.13616 36069 ft 423 kts 309°
2026-04-25 10:34 44.77671 17.07156 36078 ft 422 kts 309°
2026-04-25 10:35 44.81327 17.00697 36072 ft 422 kts 309°
2026-04-25 10:35 44.84977 16.94232 36064 ft 421 kts 308°
2026-04-25 10:36 44.88597 16.87806 36066 ft 421 kts 308°
2026-04-25 10:36 44.92232 16.81339 36076 ft 421 kts 308°
2026-04-25 10:37 44.95864 16.74862 36045 ft 420 kts 308°
2026-04-25 10:37 44.99487 16.68386 36047 ft 420 kts 308°
2026-04-25 10:38 45.03078 16.61954 36060 ft 420 kts 308°
2026-04-25 10:38 45.06687 16.55473 36062 ft 419 kts 308°
2026-04-25 10:39 45.10294 16.48984 36064 ft 420 kts 308°
2026-04-25 10:39 45.13877 16.42450 36059 ft 420 kts 306°
2026-04-25 10:40 45.17242 16.35697 36056 ft 420 kts 304°
2026-04-25 10:40 45.20526 16.28921 36060 ft 420 kts 304°
2026-04-25 10:41 45.23839 16.22107 36054 ft 420 kts 304°
2026-04-25 10:41 45.27164 16.15298 36049 ft 420 kts 304°
2026-04-25 10:42 45.30489 16.08489 36049 ft 419 kts 304°
2026-04-25 10:42 45.33788 16.01722 36048 ft 419 kts 304°
2026-04-25 10:43 45.37104 15.94903 36056 ft 419 kts 304°
2026-04-25 10:43 45.40409 15.88090 36056 ft 419 kts 304°
2026-04-25 10:44 45.43713 15.81262 36052 ft 418 kts 304°
2026-04-25 10:44 45.47010 15.74433 36052 ft 418 kts 303°
2026-04-25 10:45 45.50279 15.67645 36046 ft 418 kts 303°
2026-04-25 10:45 45.53563 15.60809 36045 ft 418 kts 303°
2026-04-25 10:46 45.56842 15.53967 36053 ft 417 kts 303°
2026-04-25 10:46 45.60111 15.47131 36055 ft 417 kts 303°
2026-04-25 10:47 45.63346 15.40347 36065 ft 416 kts 302°
2026-04-25 10:47 45.66603 15.33503 36040 ft 416 kts 302°
2026-04-25 10:48 45.69849 15.26664 36052 ft 415 kts 302°
2026-04-25 10:48 45.73091 15.19817 36039 ft 416 kts 302°
2026-04-25 10:49 45.76309 15.13005 36050 ft 416 kts 302°
2026-04-25 10:49 45.79542 15.06144 36033 ft 416 kts 302°
2026-04-25 10:50 45.82772 14.99273 36037 ft 416 kts 302°
2026-04-25 10:50 45.85998 14.92394 36051 ft 415 kts 302°
2026-04-25 10:51 45.89216 14.85516 36037 ft 415 kts 302°
2026-04-25 10:51 45.92413 14.78665 36046 ft 416 kts 302°
2026-04-25 10:52 45.95626 14.71761 36051 ft 416 kts 302°
2026-04-25 10:52 45.98837 14.64849 36043 ft 416 kts 302°
2026-04-25 10:53 46.02048 14.57916 36043 ft 416 kts 302°
2026-04-25 10:53 46.05255 14.50976 36059 ft 416 kts 301°
2026-04-25 10:54 46.08434 14.44079 36049 ft 416 kts 301°
2026-04-25 10:54 46.11631 14.37127 36039 ft 416 kts 301°
2026-04-25 10:55 46.14818 14.30181 36057 ft 415 kts 301°
2026-04-25 10:55 46.17991 14.23245 36042 ft 414 kts 301°
2026-04-25 10:56 46.21132 14.16363 36048 ft 413 kts 301°
2026-04-25 10:56 46.24284 14.09442 36061 ft 412 kts 301°
2026-04-25 10:57 46.27429 14.02515 36057 ft 412 kts 301°
2026-04-25 10:57 46.30567 13.95589 36059 ft 412 kts 301°
2026-04-25 10:58 46.33696 13.88666 36066 ft 411 kts 301°
2026-04-25 10:58 46.36817 13.81743 36056 ft 410 kts 300°
2026-04-25 10:59 46.39910 13.74865 36055 ft 411 kts 300°
2026-04-25 10:59 46.43024 13.67921 36054 ft 411 kts 300°
2026-04-25 11:00 46.46134 13.60971 36062 ft 411 kts 300°
2026-04-25 11:00 46.48722 13.55174 36057 ft 412 kts 300°
2026-04-25 11:01 46.52333 13.47066 36062 ft 412 kts 300°
2026-04-25 11:01 46.55445 13.40059 36048 ft 413 kts 300°
2026-04-25 11:02 46.58034 13.34240 36048 ft 413 kts 300°
2026-04-25 11:02 46.61174 13.27236 36050 ft 414 kts 300°
2026-04-25 11:03 46.64823 13.19081 36054 ft 414 kts 300°
2026-04-25 11:03 46.67953 13.12061 36045 ft 413 kts 300°
2026-04-25 11:04 46.71070 13.05048 36040 ft 412 kts 300°
2026-04-25 11:04 46.73654 12.99220 36047 ft 411 kts 300°
2026-04-25 11:05 46.76751 12.92215 36061 ft 411 kts 300°
2026-04-25 11:05 46.79845 12.85201 36048 ft 411 kts 300°
2026-04-25 11:06 46.82938 12.78173 36052 ft 411 kts 300°
2026-04-25 11:06 46.86003 12.71190 36069 ft 411 kts 300°
2026-04-25 11:07 46.89089 12.64141 36081 ft 412 kts 300°
2026-04-25 11:07 46.92177 12.57068 36079 ft 413 kts 299°
2026-04-25 11:08 46.95262 12.49987 36087 ft 413 kts 299°
2026-04-25 11:08 46.98323 12.42941 36094 ft 414 kts 299°
2026-04-25 11:09 47.01413 12.35810 36095 ft 414 kts 299°
2026-04-25 11:09 47.04491 12.28690 36084 ft 413 kts 299°
2026-04-25 11:10 47.07558 12.21576 36105 ft 413 kts 299°
2026-04-25 11:10 47.10627 12.14438 36096 ft 414 kts 299°
2026-04-25 11:11 47.13678 12.07322 36093 ft 415 kts 299°
2026-04-25 11:11 47.16751 12.00137 36092 ft 415 kts 299°
2026-04-25 11:12 47.19811 11.92968 36107 ft 414 kts 299°
2026-04-25 11:12 47.22722 11.85687 36102 ft 412 kts 295°
2026-04-25 11:13 47.25334 11.78265 36096 ft 410 kts 294°
2026-04-25 11:13 47.27932 11.70776 36087 ft 411 kts 294°
2026-04-25 11:14 47.30544 11.63301 36091 ft 411 kts 294°
2026-04-25 11:14 47.33165 11.55829 36083 ft 410 kts 294°
2026-04-25 11:15 47.35781 11.48366 36080 ft 410 kts 294°
2026-04-25 11:15 47.38375 11.40944 36079 ft 410 kts 294°
2026-04-25 11:16 47.42280 11.29728 36090 ft 410 kts 294°
2026-04-25 11:16 47.44883 11.22229 36100 ft 411 kts 294°
2026-04-25 11:17 47.47464 11.14765 36110 ft 411 kts 294°
2026-04-25 11:17 47.50061 11.07237 36096 ft 411 kts 294°
2026-04-25 11:18 47.52655 10.99698 36095 ft 411 kts 294°
2026-04-25 11:18 47.55243 10.92153 36098 ft 411 kts 294°
2026-04-25 11:19 47.57826 10.84599 36118 ft 411 kts 294°
2026-04-25 11:19 47.60393 10.77069 36121 ft 412 kts 293°
2026-04-25 11:20 47.62973 10.69480 36108 ft 413 kts 293°
2026-04-25 11:20 47.65552 10.61874 36110 ft 413 kts 293°
2026-04-25 11:21 47.68128 10.54252 36117 ft 413 kts 293°
2026-04-25 11:21 47.70686 10.46662 36106 ft 414 kts 293°
2026-04-25 11:22 47.73275 10.39007 36118 ft 416 kts 296°
2026-04-25 11:22 47.76846 10.32156 36116 ft 425 kts 314°
2026-04-25 11:23 47.81423 10.26505 36128 ft 429 kts 317°
2026-04-25 11:23 47.86048 10.20989 36127 ft 429 kts 317°
2026-04-25 11:24 47.90682 10.15388 36128 ft 429 kts 317°
2026-04-25 11:24 47.95303 10.09739 36131 ft 430 kts 317°
2026-04-25 11:25 47.99917 10.04071 36135 ft 430 kts 317°
2026-04-25 11:25 48.04496 9.98431 36123 ft 429 kts 317°
2026-04-25 11:26 48.09097 9.92752 36125 ft 429 kts 317°
2026-04-25 11:26 48.13688 9.87074 36127 ft 427 kts 317°
2026-04-25 11:27 48.18260 9.81402 36125 ft 426 kts 319°
2026-04-25 11:27 48.22051 9.76691 36129 ft 426 kts 319°
2026-04-25 11:28 48.27340 9.70101 36131 ft 425 kts 319°
2026-04-25 11:28 48.31876 9.64437 36116 ft 424 kts 319°
2026-04-25 11:29 48.36390 9.58748 36111 ft 423 kts 318°
2026-04-25 11:29 48.40854 9.53003 36108 ft 422 kts 318°
2026-04-25 11:30 48.45312 9.47248 36102 ft 422 kts 319°
2026-04-25 11:30 48.49739 9.41532 36099 ft 422 kts 319°
2026-04-25 11:31 48.54192 9.35774 36102 ft 422 kts 319°
2026-04-25 11:31 48.58644 9.30004 36104 ft 422 kts 319°
2026-04-25 11:32 48.63354 9.24752 36097 ft 423 kts 332°
2026-04-25 11:32 48.68725 9.21112 36101 ft 423 kts 335°
2026-04-25 11:33 48.74101 9.17580 36109 ft 423 kts 335°
2026-04-25 11:33 48.79485 9.13982 36100 ft 423 kts 335°
2026-04-25 11:34 48.84859 9.10350 36101 ft 422 kts 334°
2026-04-25 11:34 48.90213 9.06713 36103 ft 421 kts 334°
2026-04-25 11:35 48.95557 9.03076 36113 ft 420 kts 334°
2026-04-25 11:35 49.00845 8.99469 36105 ft 419 kts 334°
2026-04-25 11:36 49.06148 8.95844 36108 ft 417 kts 334°
2026-04-25 11:36 49.11433 8.92222 36107 ft 415 kts 334°
2026-04-25 11:37 49.16694 8.88609 36109 ft 414 kts 334°
2026-04-25 11:37 49.22006 8.85211 36116 ft 414 kts 339°
2026-04-25 11:38 49.27469 8.82573 36118 ft 414 kts 341°
2026-04-25 11:38 49.32976 8.79989 36122 ft 414 kts 341°
2026-04-25 11:39 49.38468 8.77343 36122 ft 414 kts 340°
2026-04-25 11:39 49.43954 8.74658 36140 ft 414 kts 340°
2026-04-25 11:40 49.49403 8.71977 36128 ft 414 kts 340°
2026-04-25 11:40 49.54895 8.69271 36127 ft 415 kts 340°
2026-04-25 11:41 49.60395 8.66554 36124 ft 415 kts 340°
2026-04-25 11:41 49.65896 8.63831 36140 ft 415 kts 340°
2026-04-25 11:42 49.71226 8.60621 36127 ft 413 kts 329°
2026-04-25 11:42 49.75786 8.55308 36131 ft 411 kts 316°
2026-04-25 11:43 49.79909 8.49174 36123 ft 411 kts 316°
2026-04-25 11:43 49.83818 8.42745 36118 ft 410 kts 305°
2026-04-25 11:44 49.86449 8.34931 36119 ft 412 kts 290°
2026-04-25 11:44 49.88184 8.26531 36124 ft 412 kts 289°
2026-04-25 11:45 49.89908 8.18065 36126 ft 412 kts 289°
2026-04-25 11:45 49.91659 8.09607 36139 ft 412 kts 289°
2026-04-25 11:46 49.93416 8.01149 36141 ft 412 kts 289°
2026-04-25 11:46 49.95145 7.92674 36138 ft 412 kts 288°
2026-04-25 11:47 49.96752 7.84201 36135 ft 411 kts 288°
2026-04-25 11:47 49.98369 7.75676 35928 ft 412 kts 288°
2026-04-25 11:48 49.99185 7.71435 35581 ft 407 kts 288°
2026-04-25 11:48 50.00022 7.67264 35179 ft 403 kts 289°
2026-04-25 11:48 50.00877 7.63134 34781 ft 399 kts 289°
2026-04-25 11:48 50.01726 7.59043 34385 ft 396 kts 289°
2026-04-25 11:49 50.02552 7.55035 33964 ft 393 kts 289°
2026-04-25 11:49 50.03378 7.50997 33529 ft 390 kts 289°
2026-04-25 11:49 50.04192 7.46992 33112 ft 387 kts 289°
2026-04-25 11:49 50.04997 7.43018 32711 ft 384 kts 289°
2026-04-25 11:50 50.05794 7.39072 32315 ft 380 kts 289°
2026-04-25 11:50 50.06582 7.35161 31916 ft 378 kts 289°
2026-04-25 11:50 50.07360 7.31280 31522 ft 375 kts 288°
2026-04-25 11:50 50.07920 7.27316 31140 ft 375 kts 279°
2026-04-25 11:51 50.08116 7.23283 30772 ft 373 kts 276°
2026-04-25 11:51 50.08264 7.19263 30403 ft 371 kts 276°
2026-04-25 11:51 50.08408 7.15321 30002 ft 369 kts 276°
2026-04-25 11:51 50.08558 7.11349 29570 ft 366 kts 277°
2026-04-25 11:52 50.08714 7.07408 29171 ft 362 kts 277°
2026-04-25 11:52 50.08871 7.03511 28771 ft 359 kts 277°
2026-04-25 11:52 50.09028 6.99648 28389 ft 356 kts 277°
2026-04-25 11:52 50.09184 6.95815 27997 ft 354 kts 277°
2026-04-25 11:53 50.09337 6.92008 27612 ft 351 kts 277°
2026-04-25 11:53 50.09484 6.88223 27229 ft 349 kts 276°
2026-04-25 11:53 50.09498 6.84440 26839 ft 349 kts 272°
2026-04-25 11:53 50.09422 6.80728 26476 ft 347 kts 271°
2026-04-25 11:54 50.09340 6.76989 26113 ft 345 kts 271°
2026-04-25 11:54 50.09259 6.73265 25743 ft 344 kts 271°
2026-04-25 11:54 50.09089 6.65850 24993 ft 342 kts 271°
2026-04-25 11:55 50.09004 6.62152 24620 ft 341 kts 271°
2026-04-25 11:55 50.08919 6.58459 24235 ft 341 kts 271°
2026-04-25 11:55 50.08834 6.54764 23831 ft 342 kts 271°
2026-04-25 11:55 50.08748 6.51070 23406 ft 341 kts 271°
2026-04-25 11:56 50.08663 6.47433 23018 ft 340 kts 271°
2026-04-25 11:56 50.08574 6.43766 22629 ft 338 kts 270°
2026-04-25 11:56 50.08486 6.40120 22248 ft 336 kts 271°
2026-04-25 11:56 50.08410 6.36492 21860 ft 334 kts 271°
2026-04-25 11:57 50.08340 6.32897 21495 ft 331 kts 271°
2026-04-25 11:57 50.08270 6.29325 21149 ft 329 kts 271°
2026-04-25 11:57 50.08198 6.25777 20799 ft 327 kts 271°
2026-04-25 11:57 50.08124 6.22247 20454 ft 325 kts 270°
2026-04-25 11:58 50.08035 6.18734 20118 ft 324 kts 270°
2026-04-25 11:58 50.07920 6.15288 19780 ft 323 kts 269°
2026-04-25 11:58 50.07803 6.11809 19444 ft 321 kts 270°
2026-04-25 11:58 50.07782 6.08338 19103 ft 319 kts 272°
2026-04-25 11:59 50.07907 6.04900 18757 ft 317 kts 284°
2026-04-25 11:59 50.08767 6.01798 18420 ft 312 kts 307°
2026-04-25 11:59 50.10273 5.99412 18057 ft 309 kts 325°
2026-04-25 12:00 50.14160 5.96744 17355 ft 305 kts 340°
2026-04-25 12:00 50.16124 5.95641 17010 ft 303 kts 340°
2026-04-25 12:00 50.20063 5.93431 16369 ft 299 kts 339°
2026-04-25 12:01 50.22013 5.92322 16051 ft 298 kts 339°
2026-04-25 12:01 50.23954 5.91212 15735 ft 297 kts 339°
2026-04-25 12:01 50.25890 5.90098 15403 ft 296 kts 339°
2026-04-25 12:01 50.27815 5.88986 15093 ft 295 kts 339°
2026-04-25 12:02 50.31641 5.86768 14451 ft 292 kts 338°
2026-04-25 12:02 50.33540 5.85665 14140 ft 291 kts 338°
2026-04-25 12:02 50.35409 5.84578 13812 ft 290 kts 338°
2026-04-25 12:03 50.37295 5.83480 13462 ft 289 kts 338°
2026-04-25 12:03 50.39171 5.82386 13126 ft 287 kts 338°
2026-04-25 12:03 50.41040 5.81295 12802 ft 285 kts 338°
2026-04-25 12:03 50.42890 5.80214 12480 ft 283 kts 338°
2026-04-25 12:04 50.44732 5.79138 12177 ft 281 kts 338°
2026-04-25 12:04 50.46560 5.78069 11873 ft 280 kts 338°
2026-04-25 12:04 50.48381 5.77002 11562 ft 278 kts 338°
2026-04-25 12:04 50.50167 5.75956 11257 ft 277 kts 338°
2026-04-25 12:05 50.51969 5.74899 10977 ft 276 kts 338°
2026-04-25 12:05 50.53764 5.73845 10661 ft 275 kts 338°
2026-04-25 12:05 50.55551 5.72796 10412 ft 272 kts 338°
2026-04-25 12:05 50.57288 5.71752 10297 ft 263 kts 333°
2026-04-25 12:06 50.58690 5.70022 10157 ft 254 kts 310°
2026-04-25 12:06 50.59642 5.67654 9717 ft 258 kts 296°
2026-04-25 12:06 50.60373 5.65077 9423 ft 258 kts 294°
2026-04-25 12:06 50.61076 5.62481 9126 ft 258 kts 294°
2026-04-25 12:07 50.61777 5.59918 8823 ft 258 kts 294°
2026-04-25 12:07 50.62499 5.57332 8534 ft 257 kts 295°
2026-04-25 12:07 50.63222 5.54759 8273 ft 257 kts 295°
2026-04-25 12:07 50.63945 5.52199 7998 ft 256 kts 295°
2026-04-25 12:08 50.64670 5.49642 7712 ft 255 kts 296°
2026-04-25 12:08 50.65728 5.47444 7413 ft 254 kts 323°
2026-04-25 12:08 50.67285 5.46179 7165 ft 253 kts 341°
2026-04-25 12:08 50.68983 5.45443 6895 ft 253 kts 345°
2026-04-25 12:09 50.70667 5.44791 6604 ft 253 kts 345°
2026-04-25 12:09 50.72372 5.44119 6314 ft 252 kts 345°
2026-04-25 12:09 50.74065 5.43432 6038 ft 251 kts 345°
2026-04-25 12:09 50.75756 5.42737 5761 ft 251 kts 345°
2026-04-25 12:10 50.77467 5.42312 5457 ft 251 kts
2026-04-25 12:10 50.79106 5.43207 5225 ft 252 kts 31°
2026-04-25 12:10 50.80431 5.45031 4947 ft 253 kts 43°
2026-04-25 12:10 50.81660 5.47005 4724 ft 250 kts 44°
2026-04-25 12:11 50.82687 5.49117 4597 ft 244 kts 65°
2026-04-25 12:11 50.82931 5.51677 4503 ft 231 kts 96°
2026-04-25 12:11 50.82461 5.53997 4411 ft 215 kts 118°
2026-04-25 12:11 50.81570 5.55808 4328 ft 204 kts 134°
2026-04-25 12:12 50.80594 5.57329 4228 ft 190 kts 135°
2026-04-25 12:12 50.79972 5.58278 4126 ft 187 kts 135°
2026-04-25 12:12 50.78723 5.60194 3908 ft 186 kts 135°
2026-04-25 12:12 50.77803 5.61615 3729 ft 185 kts 135°
2026-04-25 12:13 50.76715 5.62664 3504 ft 187 kts 172°
2026-04-25 12:13 50.75529 5.62207 3344 ft 178 kts 216°
2026-04-25 12:13 50.74523 5.61040 3206 ft 181 kts 221°
2026-04-25 12:13 50.73538 5.59794 3082 ft 185 kts 222°
2026-04-25 12:14 50.72581 5.58430 2818 ft 183 kts 226°
2026-04-25 12:14 50.71707 5.57066 2619 ft 168 kts 226°
2026-04-25 12:14 50.70912 5.55806 2374 ft 159 kts 227°
2026-04-25 12:14 50.70132 5.54563 2155 ft 159 kts 228°
2026-04-25 12:15 50.69361 5.53318 1891 ft 160 kts 227°
2026-04-25 12:15 50.68582 5.52110 1715 ft 157 kts 226°
2026-04-25 12:15 50.67822 5.50891 1574 ft 157 kts 227°
2026-04-25 12:15 50.67048 5.49643 1307 ft 160 kts 227°
2026-04-25 12:16 50.66260 5.48420 1065 ft 156 kts 227°
2026-04-25 12:16 50.65509 5.47229 835 ft 150 kts 229°
2026-04-25 12:16 50.64791 5.46075 657 ft 145 kts 227°
2026-04-25 12:16 50.64132 5.45018 597 ft 119 kts 225°
2026-04-25 12:17 50.63656 5.44270 631 ft 75 kts 225°
2026-04-25 12:17 50.63448 5.43942 637 ft 20 kts 227°
2026-04-25 12:17 50.63466 5.43751 633 ft 21 kts 315°
2026-04-25 12:17 50.63578 5.43575 635 ft 23 kts 315°
2026-04-25 12:18 50.63639 5.43477 638 ft 4 kts 313°
2026-04-25 12:18 50.63651 5.43457 638 ft 0 kts 312°
2026-04-25 12:19 50.63664 5.43456 641 ft 4 kts 13°
2026-04-25 12:19 50.63759 5.43563 638 ft 20 kts 31°
2026-04-25 12:19 50.63854 5.43652 638 ft 9 kts 18°
2026-04-25 12:20 50.63882 5.43623 638 ft 5 kts 290°
2026-04-25 12:20 50.63902 5.43575 640 ft 6 kts 314°
2026-04-25 12:20 50.63918 5.43552 638 ft 3 kts 319°
2026-04-25 12:20 50.63925 5.43543 638 ft 0 kts 319°